When you browse on this site, cookies collect data to enhance your experience and personalize the content and advertising you see.
Visit our Privacy Policy to learn more. By continuing to use the site, you agree to this use of cookies and data.
  • In Österreich
  • Länderverzeichnis
  • Für 7 Tage
  • Wassertemperatur
  • Wetterkarte
  • News
  • Widgets
  • user-avatar
    Anmelden

    Stündliche Wetter Soacha

    Heute, 12 Dezember, Donnerstag

    Zeit Temperatur Niederschläge Wind Luftdruck Luftfeuchtigkeit
    00:00 +11°C° 0.2 mm 1 m/S 559 mmHg 91%
    01:00 +11°C° 0.2 mm 1 m/S 558 mmHg 91%
    02:00 +11°C° 0.1 mm 1 m/S 558 mmHg 91%
    03:00 +11°C° 0.1 mm 1 m/S 558 mmHg 90%
    04:00 +11°C° 0.1 mm 1 m/S 558 mmHg 90%
    05:00 +11°C° 0 mm 1 m/S 559 mmHg 89%
    06:00 +11°C° 0 mm 0 m/S 559 mmHg 88%
    07:00 +11°C° 0 mm 0 m/S 560 mmHg 88%
    08:00 +14°C° 0.2 mm 1 m/S 561 mmHg 85%
    09:00 +15°C° 0.2 mm 1 m/S 561 mmHg 82%
    10:00 +18°C° 0.2 mm 1 m/S 562 mmHg 79%
    11:00 +17°C° 0.7 mm 2 m/S 562 mmHg 79%
    12:00 +17°C° 0.7 mm 2 m/S 561 mmHg 78%
    13:00 +18°C° 0.7 mm 2 m/S 561 mmHg 77%
    14:00 +17°C° 0.9 mm 2 m/S 560 mmHg 81%
    15:00 +18°C° 0.9 mm 1 m/S 559 mmHg 84%
    16:00 +16°C° 0.9 mm 1 m/S 559 mmHg 87%
    17:00 +15°C° 0.3 mm 1 m/S 558 mmHg 89%
    18:00 +13°C° 0.3 mm 1 m/S 558 mmHg 91%
    19:00 +11°C° 0.3 mm 0 m/S 558 mmHg 92%
    20:00 +12°C° 0.1 mm 1 m/S 558 mmHg 91%
    21:00 +11°C° 0.1 mm 1 m/S 559 mmHg 90%
    22:00 +11°C° 0.1 mm 1 m/S 559 mmHg 89%
    23:00 +11°C° 0 mm 1 m/S 559 mmHg 89%

    Morgen, 13 Dezember, Freitag

    Zeit Temperatur Niederschläge Wind Luftdruck Luftfeuchtigkeit
    00:00 +11°C° 0 mm 1 m/S 558 mmHg 88%
    01:00 +11°C° 0 mm 1 m/S 558 mmHg 87%
    02:00 +11°C° 0 mm 1 m/S 558 mmHg 87%
    03:00 +10°C° 0 mm 0 m/S 558 mmHg 87%
    04:00 +10°C° 0 mm 0 m/S 557 mmHg 87%
    05:00 +10°C° 0 mm 0 m/S 558 mmHg 86%
    06:00 +10°C° 0 mm 0 m/S 559 mmHg 85%
    07:00 +11°C° 0 mm 0 m/S 559 mmHg 85%
    08:00 +14°C° 0 mm 1 m/S 560 mmHg 78%
    09:00 +16°C° 0 mm 1 m/S 562 mmHg 71%
    10:00 +19°C° 0 mm 1 m/S 563 mmHg 65%
    11:00 +18°C° 0.3 mm 2 m/S 562 mmHg 69%
    12:00 +18°C° 0.3 mm 2 m/S 561 mmHg 74%
    13:00 +18°C° 0.3 mm 2 m/S 561 mmHg 79%
    14:00 +17°C° 0.9 mm 2 m/S 560 mmHg 82%
    15:00 +16°C° 0.9 mm 2 m/S 559 mmHg 85%
    16:00 +16°C° 0.9 mm 1 m/S 559 mmHg 88%
    17:00 +15°C° 0.6 mm 1 m/S 559 mmHg 90%
    18:00 +13°C° 0.6 mm 0 m/S 559 mmHg 91%
    19:00 +12°C° 0.6 mm 0 m/S 559 mmHg 93%
    20:00 +12°C° 0.3 mm 0 m/S 559 mmHg 92%
    21:00 +12°C° 0.3 mm 0 m/S 560 mmHg 91%
    22:00 +12°C° 0.3 mm 0 m/S 560 mmHg 91%
    23:00 +12°C° 0.3 mm 0 m/S 560 mmHg 91%

    übermorgen, 14 Dezember, Samstag

    Zeit Temperatur Niederschläge Wind Luftdruck Luftfeuchtigkeit
    00:00 +11°C° 0.3 mm 0 m/S 559 mmHg 92%
    01:00 +11°C° 0.3 mm 0 m/S 559 mmHg 93%
    02:00 +11°C° 0.7 mm 0 m/S 559 mmHg 93%
    03:00 +11°C° 0.7 mm 0 m/S 559 mmHg 94%
    04:00 +11°C° 0.7 mm 0 m/S 559 mmHg 94%
    05:00 +11°C° 0.9 mm 0 m/S 559 mmHg 94%
    06:00 +11°C° 0.9 mm 0 m/S 560 mmHg 95%
    07:00 +11°C° 0.9 mm 0 m/S 560 mmHg 95%
    08:00 +12°C° 0.7 mm 0 m/S 561 mmHg 92%
    09:00 +13°C° 0.7 mm 0 m/S 561 mmHg 88%
    10:00 +15°C° 0.7 mm 1 m/S 562 mmHg 85%
    11:00 +15°C° 0.6 mm 1 m/S 561 mmHg 85%
    12:00 +16°C° 0.6 mm 1 m/S 561 mmHg 85%
    13:00 +16°C° 0.6 mm 1 m/S 561 mmHg 86%
    14:00 +16°C° 0.8 mm 1 m/S 560 mmHg 88%
    15:00 +15°C° 0.8 mm 1 m/S 559 mmHg 90%
    16:00 +15°C° 0.8 mm 1 m/S 559 mmHg 92%
    17:00 +14°C° 0.6 mm 1 m/S 559 mmHg 93%
    18:00 +13°C° 0.6 mm 1 m/S 559 mmHg 94%
    19:00 +12°C° 0.6 mm 0 m/S 559 mmHg 95%
    20:00 +12°C° 0.5 mm 0 m/S 560 mmHg 94%
    21:00 +12°C° 0.5 mm 1 m/S 560 mmHg 93%
    22:00 +12°C° 0.5 mm 1 m/S 560 mmHg 92%
    23:00 +11°C° 0.6 mm 0 m/S 560 mmHg 92%

    15 Dezember, Sonntag

    Zeit Temperatur Niederschläge Wind Luftdruck Luftfeuchtigkeit
    00:00 +11°C° 0.6 mm 0 m/S 560 mmHg 92%
    01:00 +11°C° 0.6 mm 0 m/S 560 mmHg 92%
    02:00 +11°C° 0.2 mm 0 m/S 559 mmHg 93%
    03:00 +11°C° 0.2 mm 0 m/S 559 mmHg 93%
    04:00 +11°C° 0.2 mm 0 m/S 559 mmHg 94%
    05:00 +11°C° 0.1 mm 0 m/S 560 mmHg 93%
    06:00 +11°C° 0.1 mm 0 m/S 560 mmHg 93%
    07:00 +12°C° 0.1 mm 0 m/S 561 mmHg 92%
    08:00 +13°C° 0.4 mm 0 m/S 561 mmHg 91%
    09:00 +15°C° 0.4 mm 1 m/S 562 mmHg 89%
    10:00 +16°C° 0.4 mm 1 m/S 563 mmHg 87%
    11:00 +16°C° 1 mm 1 m/S 562 mmHg 89%
    12:00 +16°C° 1 mm 1 m/S 561 mmHg 90%
    13:00 +16°C° 1 mm 1 m/S 560 mmHg 91%
    14:00 +16°C° 1 mm 1 m/S 560 mmHg 90%
    15:00 +16°C° 1 mm 1 m/S 560 mmHg 90%
    16:00 +16°C° 1 mm 1 m/S 560 mmHg 89%
    17:00 +15°C° 0.8 mm 1 m/S 560 mmHg 91%
    18:00 +13°C° 0.8 mm 0 m/S 559 mmHg 93%
    19:00 +12°C° 0.8 mm 0 m/S 559 mmHg 95%
    20:00 +13°C° 2.7 mm 1 m/S 560 mmHg 95%
    21:00 +13°C° 2.7 mm 1 m/S 560 mmHg 95%
    22:00 +13°C° 2.7 mm 1 m/S 560 mmHg 94%
    23:00 +12°C° 1.2 mm 1 m/S 560 mmHg 94%

    16 Dezember, Montag

    Zeit Temperatur Niederschläge Wind Luftdruck Luftfeuchtigkeit
    00:00 +12°C° 1.2 mm 1 m/S 560 mmHg 93%
    01:00 +11°C° 1.2 mm 0 m/S 560 mmHg 92%
    02:00 +11°C° 0.2 mm 0 m/S 559 mmHg 92%
    03:00 +11°C° 0.2 mm 0 m/S 559 mmHg 92%
    04:00 +11°C° 0.2 mm 0 m/S 559 mmHg 92%
    05:00 +11°C° 0 mm 0 m/S 559 mmHg 91%
    06:00 +11°C° 0 mm 0 m/S 560 mmHg 90%
    07:00 +12°C° 0 mm 0 m/S 560 mmHg 89%
    08:00 +13°C° 0.1 mm 0 m/S 561 mmHg 85%
    09:00 +16°C° 0.1 mm 1 m/S 562 mmHg 81%
    10:00 +18°C° 0.1 mm 1 m/S 563 mmHg 77%
    11:00 +18°C° 0.9 mm 1 m/S 562 mmHg 79%
    12:00 +18°C° 0.9 mm 1 m/S 561 mmHg 81%
    13:00 +18°C° 0.9 mm 1 m/S 561 mmHg 84%
    14:00 +18°C° 1.1 mm 1 m/S 560 mmHg 85%
    15:00 +16°C° 1.1 mm 1 m/S 559 mmHg 87%
    16:00 +16°C° 1.1 mm 1 m/S 559 mmHg 88%
    17:00 +15°C° 0.7 mm 1 m/S 559 mmHg 90%
    18:00 +14°C° 0.7 mm 1 m/S 559 mmHg 92%
    19:00 +12°C° 0.7 mm 0 m/S 558 mmHg 93%
    20:00 +13°C° 0.8 mm 1 m/S 559 mmHg 92%
    21:00 +13°C° 0.8 mm 1 m/S 559 mmHg 92%
    22:00 +13°C° 0.8 mm 1 m/S 560 mmHg 91%
    23:00 +12°C° 0.6 mm 1 m/S 559 mmHg 90%

    17 Dezember, Dienstag

    Zeit Temperatur Niederschläge Wind Luftdruck Luftfeuchtigkeit
    00:00 +12°C° 0.6 mm 1 m/S 559 mmHg 89%
    01:00 +12°C° 0.6 mm 1 m/S 558 mmHg 89%
    02:00 +11°C° 0.3 mm 1 m/S 558 mmHg 88%
    03:00 +11°C° 0.3 mm 1 m/S 558 mmHg 88%
    04:00 +10°C° 0.3 mm 1 m/S 557 mmHg 87%
    05:00 +11°C° 0.1 mm 1 m/S 558 mmHg 86%
    06:00 +11°C° 0.1 mm 1 m/S 558 mmHg 84%
    07:00 +12°C° 0.1 mm 1 m/S 559 mmHg 83%
    08:00 +14°C° 0 mm 1 m/S 560 mmHg 76%
    09:00 +16°C° 0 mm 1 m/S 561 mmHg 70%
    10:00 +19°C° 0 mm 1 m/S 562 mmHg 63%
    11:00 +19°C° 0.3 mm 1 m/S 562 mmHg 66%
    12:00 +18°C° 0.3 mm 2 m/S 561 mmHg 68%
    13:00 +18°C° 0.3 mm 2 m/S 560 mmHg 70%
    14:00 +18°C° 0.5 mm 2 m/S 560 mmHg 74%
    15:00 +18°C° 0.5 mm 1 m/S 559 mmHg 78%
    16:00 +18°C° 0.5 mm 1 m/S 558 mmHg 82%
    17:00 +15°C° 0.6 mm 1 m/S 558 mmHg 86%
    18:00 +14°C° 0.6 mm 1 m/S 558 mmHg 90%
    19:00 +13°C° 0.6 mm 1 m/S 558 mmHg 93%
    20:00 +13°C° 0.6 mm 1 m/S 558 mmHg 92%
    21:00 +12°C° 0.6 mm 1 m/S 558 mmHg 90%
    22:00 +12°C° 0.6 mm 1 m/S 558 mmHg 89%
    23:00 +11°C° 0.3 mm 1 m/S 558 mmHg 88%
    Mehr zeigen